CAPE
0 0 0 0 0 0 0 0 0 0 0 0 0 0 0 0 0 0 0 0 0 0 0 0 0 0 0 0 0 892 2394 2525 2475 2428 2397 2453 2418 2342 2129 2114 2055 2137 2290 2098 2170 2277 1764 1589 1692 1853 1813 1706 1557 1571 1504 1443 1336 1156 771 682 748 570 598 593 754 814 972 1054 1029 1049 978 1036 1020 933 853 948 930 879 925 826 752 764 650 686 635 699
0 0 0 0 0 0 0 0 0 0 0 0 0 0 0 0 0 0 0 0 0 0 0 0 0 0 0 0 0 14 1600 2050 2386 2461 2468 2433 2422 2234 2163 2024 1999 2062 2001 2102 2108 2236 2032 1710 1793 1775 1895 1726 1704 1648 1598 1536 1349 1138 908 891 813 561 622 776 897 956 1044 1208 1081 1110 1123 1083 1018 991 1035 1000 931 975 783 785 743 819 634 758 685 822
0 0 0 0 0 0 0 0 0 0 0 0 0 0 0 0 0 0 0 0 0 0 0 0 0 0 0 0 0 0 557 1671 2190 2411 2452 2472 2339 2299 2076 2082 1962 1922 1909 1916 1998 2185 2283 1833 1839 1958 1826 1795 1761 1745 1674 1632 1532 1222 1011 1004 900 766 642 912 1147 1092 1047 1268 1342 1303 1176 1177 1060 1194 1240 1161 985 772 716 672 737 827 802 661 881 1003
0 0 0 0 0 0 0 0 0 0 0 0 0 0 0 0 0 0 0 0 0 0 0 0 0 0 0 0 0 0 30 1260 2103 2435 2570 2576 2553 2408 2282 2108 1984 2006 2030 2014 1957 2023 2214 2122 2051 2120 2063 1948 1889 1841 1852 1737 1615 1382 990 1086 1113 758 666 761 1000 1074 1189 1181 1172 1342 1280 1323 1267 1147 981 998 826 765 731 686 664 918 928 956 1014 1008
0 0 0 0 0 0 0 0 0 0 0 0 0 0 0 0 0 0 0 0 0 0 0 0 0 0 0 0 0 0 0 122 1231 2088 2278 2370 2549 2529 2208 2219 2105 2073 1972 2001 1941 1884 2058 2225 2183 2127 2139 2088 1986 1905 1842 1798 1644 1469 1259 1189 1072 906 791 724 954 1049 1092 1058 999 959 1056 1032 988 959 981 956 895 972 990 909 897 1013 1141 1159 1054 1041
0 0 0 0 0 0 0 0 0 0 0 0 0 0 0 0 0 0 0 0 0 0 0 0 0 0 10 0 0 0 0 0 29 1149 1843 2029 2319 2327 2297 2244 2148 2062 1932 1939 1911 1878 1936 2257 2325 2206 2214 2233 2024 1951 1853 1746 1602 1422 1254 1250 1172 1012 794 756 977 1128 1054 1012 1115 1098 1157 996 999 1020 965 1009 908 855 941 903 988 924 1065 1160 1094 1031
0 0 0 0 0 0 0 0 0 0 0 0 0 0 0 0 0 0 0 0 0 0 0 0 0 19 23 2 18 22 84 7 0 154 1049 1892 2183 2281 2203 2163 2154 2086 2032 1913 1822 1828 1796 2172 2340 2285 2296 2212 2090 1935 1811 1695 1563 1430 1317 1152 1207 1144 912 871 963 1211 1021 1116 1350 1279 1324 1379 1310 1093 1044 1246 1309 1041 918 1086 1055 871 938 891 985 1012
0 0 0 0 0 0 0 0 0 0 0 0 0 0 0 0 0 0 0 0 0 0 0 0 0 1 14 32 13 135 320 182 12 0 442 1455 1826 2136 2169 2160 2171 2089 2071 2030 1934 1945 1765 2056 2265 2206 2088 2112 2022 1938 1808 1729 1575 1417 1336 1236 1086 1061 994 932 1012 1141 1292 1328 1358 1324 1472 1675 1642 1228 1108 1169 1241 1214 944 1065 1032 1013 955 850 1144 1191
0 0 0 0 0 0 0 0 0 0 0 0 0 0 0 0 0 0 0 0 0 0 1 0 0 0 0 21 0 404 247 318 173 106 302 1028 1854 2025 2095 2168 2201 2016 2068 2086 1908 1918 1764 1925 2171 2131 2038 1958 1948 1882 1881 1755 1580 1455 1384 1223 1075 964 959 985 1058 1192 1195 1341 1368 1533 1538 1569 1534 1280 1095 876 740 845 849 1032 767 812 518 579 665 922
0 0 0 0 0 0 0 0 0 0 0 0 0 0 0 0 0 0 0 0 0 0 8 21 0 0 20 83 124 536 415 479 485 455 541 839 1539 1988 2028 2131 2118 2040 2151 2114 2060 1825 1768 1710 2006 2050 2004 1920 1835 1810 1802 1717 1554 1471 1346 1220 1106 950 747 600 985 1054 1106 1215 1182 1440 1572 1588 1220 892 674 793 830 770 793 1013 872 803 576 372 378 459
0 0 0 0 0 0 0 0 0 0 0 0 0 0 0 0 0 0 0 0 0 0 32 14 0 0 1 19 49 560 445 604 577 774 774 970 1367 1810 2025 2072 2103 2092 2110 2110 1983 1829 1780 1629 1794 1984 1990 1943 1824 1836 1802 1643 1443 1443 1399 1169 1032 984 791 645 842 1027 1024 1041 1074 1384 1536 1434 1133 923 810 819 741 574 720 841 777 750 602 423 346 344
0 0 0 0 0 0 0 0 0 0 0 0 0 0 0 0 0 0 0 0 0 17 22 0 2 0 1 10 89 208 262 253 493 627 654 1000 1246 1693 1975 2056 2148 2135 2123 1975 1842 1771 1597 1578 1645 1830 1858 1699 1706 1784 1654 1442 1251 1232 1265 1150 888 838 689 786 988 877 977 753 1073 1331 1320 1217 1066 925 874 916 743 535 689 845 708 536 384 275 231 339
0 0 0 0 1 0 0 0 0 0 0 0 0 0 0 0 0 0 0 0 3 29 4 0 0 0 0 16 32 332 625 868 825 821 809 747 1245 1660 1805 2119 2176 2198 2132 1960 1841 1768 1676 1649 1662 1624 1547 1493 1532 1622 1464 1178 808 678 748 822 979 824 746 692 849 795 917 976 1053 1235 1262 1120 990 948 1022 983 800 587 675 709 587 394 381 226 239 334
0 0 0 0 0 0 0 0 0 0 0 0 0 0 0 1 3 0 5 0 3 2 0 0 0 1 16 10 491 876 971 1084 1151 1170 1054 873 984 1801 1981 2104 2132 2212 2052 1898 1907 1827 1616 1617 1531 1371 1417 1411 1404 1372 1341 950 647 507 540 529 793 798 698 540 677 851 993 1079 1274 1342 1288 1107 1003 934 1024 871 678 574 626 636 620 464 335 286 384 408
0 0 0 0 0 0 0 0 0 0 0 0 0 0 3 11 5 0 7 11 18 30 0 0 0 13 28 318 374 1023 1243 1298 1312 1166 776 760 1125 1974 2092 2044 2208 2192 1938 1927 1830 1700 1666 1520 1297 1158 1372 1470 1376 1268 1251 1146 729 794 578 616 860 805 531 506 660 616 787 1092 1323 1308 1235 1103 1013 820 837 752 631 482 517 593 638 555 430 312 334 426
0 0 0 0 0 0 0 0 0 0 0 0 0 0 0 0 7 21 5 31 26 15 0 2 5 25 118 478 777 1220 1432 1270 1512 1548 1608 1607 2042 2154 2047 2010 2050 1992 1933 1952 1756 1738 1541 1479 1361 1265 1363 1587 1198 961 954 713 586 528 628 823 722 602 622 546 405 762 774 926 1162 1209 1015 930 811 604 697 495 294 332 455 451 538 475 499 508 289 189
0 0 0 0 0 0 0 0 0 0 0 0 0 0 0 0 0 0 0 0 0 0 0 6 128 162 214 360 1094 1246 1126 1050 1274 1588 1512 1810 2080 1992 1958 1988 2010 1972 1847 1734 1834 1589 1503 1466 1384 1365 1451 1554 1231 945 839 592 597 592 594 516 428 547 594 502 642 670 596 942 1072 953 812 806 678 509 525 375 258 210 248 397 541 473 244 152 204 109
0 0 0 0 0 0 0 0 0 0 0 0 0 0 0 0 0 5 10 0 0 1 2 23 500 630 194 734 831 1040 1108 1032 1212 1234 1426 1555 1677 1735 1709 1823 2046 2128 2083 1913 1627 1450 1434 1391 1183 1160 1286 1424 1368 1198 1060 794 637 584 558 467 561 507 578 696 544 801 987 975 952 822 698 710 637 496 533 438 275 154 131 160 170 135 64 97 71 37
0 0 0 0 0 0 0 0 0 0 0 0 0 0 0 3 4 0 0 0 0 0 0 115 20 156 278 480 689 852 866 969 1047 1020 614 1235 1451 1675 1687 1737 1888 1990 1947 1541 1287 875 942 987 1106 979 1087 1173 1164 1130 1015 800 686 746 726 672 734 755 584 585 579 850 1064 1046 906 730 609 637 615 522 385 385 251 184 227 178 144 168 160 38 2 0
0 0 0 0 0 0 0 0 0 0 0 0 0 0 0 0 170 0 0 74 10 2 1 0 148 151 234 382 510 688 788 1014 1030 1053 992 1096 915 1087 1140 1135 1018 1036 1361 1574 1206 924 971 1153 963 1022 927 1076 1076 1003 956 932 721 858 832 678 646 690 592 471 599 917 1145 1035 833 650 513 549 537 481 331 302 214 241 372 228 169 98 77 120 3 6
0 0 0 0 0 0 0 0 38 0 0 0 0 0 0 18 0 0 0 3 31 15 2 80 78 354 250 255 314 612 850 918 976 1043 1017 968 1049 1062 1041 1014 970 936 988 829 919 1058 994 942 880 963 921 877 898 848 919 785 860 997 908 768 501 605 582 547 924 994 1133 948 771 609 507 467 468 389 352 259 265 369 386 226 115 129 131 17 16 0
0 0 0 2 0 0 0 0 0 0 0 0 0 0 12 0 2 1 8 0 0 29 1 5 32 291 16 208 433 437 757 804 824 826 967 1013 1010 953 962 808 724 769 702 726 900 1031 1026 1052 1028 950 924 838 718 786 734 738 970 940 871 678 418 635 497 725 1103 1163 1107 935 724 620 557 505 449 222 267 303 247 346 197 139 74 35 13 67 3 0
0 0 0 0 0 0 0 0 0 0 0 0 0 0 0 19 40 10 0 5 0 0 0 16 30 247 343 366 360 441 642 659 760 817 853 788 845 954 842 584 471 432 479 622 640 622 457 747 947 1089 1027 896 762 708 687 761 790 822 802 792 674 584 603 655 1014 1027 1017 892 730 632 581 546 442 194 234 246 212 244 150 132 31 1 38 45 0 0
421 0 0 0 0 0 0 0 0 0 0 8 10 0 0 4 0 97 105 83 37 0 20 12 5 306 290 490 433 535 681 566 664 659 656 848 762 743 645 623 501 463 394 433 441 313 172 604 758 783 874 915 652 549 671 689 742 873 941 895 806 717 603 705 819 863 836 779 710 663 686 622 463 245 228 232 212 270 197 84 13 1 28 9 0 0
0 0 1 17 7 6 54 23 0 0 5 7 54 5 0 0 0 0 0 0 52 36 113 103 75 395 592 600 596 593 644 591 554 573 742 730 744 532 542 463 388 366 379 219 188 87 101 318 537 611 613 609 241 89 556 771 843 931 930 816 790 742 642 716 780 712 650 637 691 702 733 725 451 252 285 224 226 281 144 65 9 0 0 0 0 0
1 14 0 13 9 15 15 11 31 90 164 0 0 0 0 0 0 0 22 3 12 4 0 100 105 409 366 561 513 593 563 617 673 749 838 709 704 682 488 401 376 370 336 101 41 78 125 189 168 112 159 81 115 106 463 664 768 782 774 759 747 758 756 702 754 677 556 537 606 740 760 646 393 304 291 252 243 144 82 26 5 0 0 0 0 0
11 0 0 8 12 8 6 0 0 0 0 231 26 0 0 0 0 0 2 3 38 0 62 32 482 482 472 464 443 453 523 488 493 662 666 594 575 495 444 454 345 343 20 12 44 46 19 37 60 59 25 18 55 123 69 533 656 738 752 746 661 664 705 730 763 652 543 500 608 731 756 553 374 382 298 123 29 1 0 0 0 0 0 0 0 0
1 0 0 0 7 20 12 3 0 0 0 14 3 0 0 0 0 0 0 44 0 2 83 18 355 450 488 352 395 411 401 375 452 535 580 518 396 421 450 430 215 25 119 92 21 8 5 1 7 64 150 264 127 53 130 105 435 555 632 670 600 576 669 735 734 709 693 606 482 521 478 489 467 412 245 76 0 0 0 0 0 0 0 0 0 0
1 0 1 0 4 6 18 20 8 0 0 0 0 1 0 0 0 0 0 0 0 0 174 54 346 279 357 283 278 393 352 379 484 565 501 478 425 460 150 102 118 290 236 284 174 126 143 205 168 5 18 32 137 150 74 109 88 515 516 550 507 523 587 573 480 710 660 402 341 111 318 426 425 47 0 0 0 3 2 0 0 0 0 0 0 0
0 0 0 0 0 0 0 2 1 0 0 0 0 0 2 2 1 1 0 1 54 72 38 48 144 18 44 126 308 278 334 391 428 534 516 402 388 361 174 241 292 278 311 268 147 178 197 82 0 0 0 16 14 39 43 77 70 77 438 463 457 416 419 432 40 344 330 301 264 284 291 6 87 51 0 0 0 0 3 12 34 39 2 0 0 0
0 22 1 0 0 0 0 0 0 0 0 0 0 0 0 1 4 3 2 0 2 4 1 1 154 239 1 96 229 184 331 458 493 453 484 380 308 137 181 271 230 286 272 206 193 26 9 33 42 41 32 29 24 17 70 27 45 106 82 287 382 388 353 326 125 179 0 250 0 0 0 0 0 40 93 0 0 0 0 0 0 0 4 0 0 0
8 35 9 8 0 2 0 0 0 0 0 0 0 0 0 0 2 0 0 8 0 3 6 3 80 19 18 35 52 49 132 259 313 443 472 436 247 233 125 307 352 338 172 186 99 30 47 44 22 0 17 17 24 43 59 72 102 64 87 32 328 298 164 156 338 355 261 0 161 79 32 47 14 19 14 2 3 2 0 4 10 11 9 6 0 0
0 6 0 0 3 10 8 0 0 0 0 0 0 1 0 1 1 1 6 6 12 7 5 10 0 1 7 3 7 125 230 345 234 246 366 417 316 307 258 226 240 238 163 150 32 44 4 0 5 22 25 18 33 64 35 29 38 70 96 76 209 22 131 0 103 118 21 160 219 183 110 58 22 9 3 8 9 4 0 0 0 0 3 9 3 12
6 62 5 24 5 4 2 1 0 0 12 3 1 4 2 6 6 3 9 12 22 6 6 0 1 37 8 12 13 44 166 293 276 186 114 199 291 282 234 156 69 21 76 103 25 25 1 32 2 9 48 36 34 21 45 49 32 18 28 10 12 10 20 40 35 38 28 98 117 39 11 5 6 2 0 2 6 0 0 0 2 4 17 32 34 33
2 0 0 0 5 2 0 2 5 9 2 2 9 0 2 2 1 1 0 1 8 16 9 16 3 3 40 28 25 48 76 150 194 210 122 89 169 203 158 132 182 217 120 38 0 30 26 45 46 8 8 11 0 4 2 27 16 28 4 4 30 24 15 6 2 1 0 0 26 10 13 1 0 10 3 1 10 8 2 1 5 28 46 45 48 48
0 0 0 0 0 0 6 12 14 1 0 1 2 0 0 2 1 0 0 0 2 3 4 7 11 25 21 19 6 11 29 30 80 162 158 133 147 143 98 114 98 101 145 20 1 26 3 7 6 1 0 2 1 5 1 1 0 1 4 1 0 0 5 3 0 0 0 3 9 19 17 2 4 7 2 5 5 9 4 11 24 35 42 46 42 38
32 0 0 7 2 16 2 1 1 0 0 1 1 1 0 0 1 0 1 0 4 4 4 0 1 12 12 14 8 9 18 2 15 35 27 72 105 51 93 113 99 58 59 53 12 1 3 12 3 2 18 9 14 12 1 2 5 5 11 6 8 5 6 2 1 2 10 12 7 12 11 14 11 12 1 2 2 1 13 18 26 22 18 51 55 24
40 29 2 0 4 1 4 1 3 1 4 1 1 1 0 1 0 0 0 0 0 2 0 0 0 1 6 17 32 30 16 7 13 21 18 16 12 17 12 4 2 6 13 9 1 0 2 4 1 16 2 42 16 12 14 12 7 6 4 2 2 5 8 13 14 3 0 0 0 0 6 19 23 10 7 4 2 0 1 3 1 7 0 0 0 0
112 110 44 12 8 4 1 4 2 2 0 0 0 0 0 2 2 1 0 1 0 0 5 3 5 5 5 16 41 33 20 11 11 26 22 16 10 2 2 6 11 2 1 2 2 2 2 2 0 11 1 15 17 5 13 8 3 2 1 1 2 1 0 2 4 5 4 4 2 1 0 0 2 1 4 8 7 0 1 0 0 0 0 2 14 6
40 60 52 0 1 5 12 7 6 2 4 0 0 0 1 4 4 2 4 0 0 1 1 2 4 10 13 13 14 10 1 3 6 8 9 8 6 6 5 4 6 1 1 0 0 2 5 7 3 7 12 14 24 16 16 11 6 4 1 3 3 1 0 2 3 1 8 4 3 0 3 3 3 4 7 7 1 6 3 1 0 1 2 4 0 12
14 5 12 4 15 7 12 3 0 2 0 0 0 0 0 1 0 1 1 0 0 0 1 1 2 2 6 2 4 5 1 2 0 1 6 4 1 1 0 0 0 0 0 0 0 0 0 0 2 2 5 2 4 3 8 9 7 5 4 2 5 8 5 6 6 10 8 3 4 3 1 0 0 2 2 2 1 4 9 11 10 3 1 1 2 1
10 3 6 2 9 6 14 5 0 0 0 0 0 0 0 0 2 0 4 1 4 6 4 2 0 0 2 0 3 8 7 9 3 4 2 2 1 0 0 0 0 3 0 0 0 0 0 0 0 0 0 0 5 2 0 0 2 2 2 0 3 4 5 8 13 16 16 15 15 14 12 8 4 1 0 0 0 1 3 5 9 11 4 4 7 7
2 0 0 0 2 0 0 2 1 1 0 0 0 0 1 4 0 0 5 2 4 8 6 6 8 3 1 2 2 1 6 3 2 3 5 7 6 5 6 6 4 0 0 0 0 1 2 0 0 0 0 0 0 0 0 0 0 0 0 0 0 0 1 1 2 4 7 8 8 6 4 2 3 6 6 4 4 3 4 4 3 4 2 2 4 4
0 0 0 0 0 0 0 1 0 1 0 0 0 1 0 0 0 0 3 1 1 5 8 1 0 2 5 6 3 3 1 4 0 1 2 4 5 4 0 1 3 1 0 0 0 0 1 0 0 0 2 0 0 0 0 2 2 1 2 2 2 0 2 1 3 3 0 1 3 5 6 6 5 2 0 0 1 0 0 0 0 0 0 0 0 0
0 0 0 0 0 0 0 0 0 5 3 1 1 0 0 0 3 3 5 5 3 1 4 3 1 0 2 2 3 4 3 8 5 3 2 3 5 6 5 4 0 0 0 0 0 0 1 3 2 0 0 0 0 0 0 2 4 4 2 0 0 1 1 1 1 2 0 0 0 2 4 4 4 1 0 0 0 0 0 0 0 0 0 0 0 0
0 0 0 0 0 0 0 0 0 0 4 5 3 2 3 0 0 0 0 0 0 0 2 3 6 1 0 2 4 3 6 5 8 9 10 11 7 8 3 2 0 0 0 0 0 0 0 0 2 4 3 2 2 1 0 0 0 3 3 2 0 0 0 1 2 2 1 0 0 0 0 0 0 0 0 0 0 0 0 0 0 0 0 0 0 0
0 0 0 0 0 0 0 0 0 1 2 4 2 3 2 0 0 0 0 2 1 2 1 6 4 0 0 0 1 4 10 11 6 8 6 6 7 2 3 1 0 0 1 1 0 0 0 0 0 1 8 16 9 1 0 0 0 0 0 0 0 0 0 0 0 0 0 0 0 0 0 0 0 0 0 0 0 0 0 0 0 0 0 0 0 0
0 0 0 0 0 0 0 0 1 0 0 0 3 3 3 2 2 2 5 6 6 5 3 2 0 0 0 0 0 0 4 5 7 4 3 1 0 0 0 1 0 0 0 0 0 0 0 0 0 0 0 2 4 2 4 13 15 8 0 0 0 0 0 0 0 0 0 0 0 0 0 0 0 0 0 0 0 0 0 0 0 0 0 0 0 0
0 0 0 0 0 0 0 0 0 0 0 0 1 1 2 4 7 3 4 2 1 0 0 1 0 0 0 0 0 0 0 0 4 6 8 6 2 2 0 2 0 0 0 0 0 0 0 0 0 0 0 0 0 0 0 0 4 11 10 5 2 0 0 0 0 0 0 0 0 0 0 0 0 0 0 0 0 0 0 0 0 0 0 1 0 0
0 0 0 0 0 0 0 0 0 0 0 5 5 2 1 0 2 3 4 5 2 0 0 0 0 0 0 0 0 0 0 0 0 1 6 6 5 0 0 0 1 0 2 1 0 0 0 0 0 0 0 0 0 0 0 0 0 0 0 0 0 0 0 0 0 0 0 0 0 0 0 0 0 0 0 0 0 0 0 0 0 0 0 0 0 0
0 0 0 0 0 0 0 0 0 0 3 14 6 2 2 6 6 3 1 0 2 3 3 3 0 0 0 0 0 0 0 0 0 0 0 0 0 0 0 0 0 2 2 2 2 4 2 0 2 4 2 0 0 0 0 0 0 0 0 0 0 0 0 0 0 0 0 0 0 0 0 0 0 0 0 0 0 0 0 0 0 0 0 0 0 0
Wind_Speed
nan nan nan nan nan nan nan nan nan nan nan nan nan nan nan nan nan nan nan nan nan nan nan nan nan nan nan nan nan 27 30 27 28 29 28 27 28 29 29 24 19 15 16 19 20 16 12 9 7 5 6 8 11 12 12 11 12 14 22 22 17 10 9 12 13 12 12 13 14 15 15 15 15 15 17 17 17 17 17 15 14 15 15 15 14 14
nan nan nan nan nan nan nan nan nan nan nan nan nan nan nan nan nan nan nan nan nan nan nan nan nan nan nan nan nan nan 27 23 23 22 22 23 24 27 29 29 24 19 19 19 18 14 11 8 6 4 5 9 11 11 12 13 16 21 26 22 18 13 9 9 9 8 7 8 10 13 14 15 16 17 17 18 17 17 17 16 16 16 16 17 15 15
nan nan nan nan nan nan nan nan nan nan nan nan nan nan nan nan nan nan nan nan nan nan nan nan nan nan nan nan nan nan 21 20 19 20 19 20 20 24 27 27 26 24 20 18 13 11 9 7 4 4 8 10 13 13 12 13 19 24 25 22 19 17 10 6 7 8 8 11 14 15 16 17 18 16 17 19 20 20 18 17 17 17 17 17 16 15
nan nan nan nan nan nan nan nan nan nan nan nan nan nan nan nan nan nan nan nan nan nan nan nan nan nan nan nan nan nan nan 17 19 17 17 20 19 20 23 24 22 20 17 15 14 10 10 7 4 5 8 10 13 14 12 14 18 21 23 21 20 18 13 8 9 10 13 16 19 19 19 20 18 18 19 22 22 21 19 18 18 18 18 17 17 16
nan nan nan nan nan nan nan nan nan nan nan nan nan nan nan nan nan nan nan nan nan nan nan nan nan nan nan nan nan nan nan 19 22 21 16 16 16 19 22 21 18 17 14 11 12 9 9 8 4 4 8 11 13 14 14 13 14 17 23 22 19 18 18 15 12 13 17 20 21 22 24 24 24 22 22 24 22 20 19 21 20 19 18 18 18 18
nan nan nan nan nan nan nan nan nan nan nan nan nan nan nan nan nan nan nan nan nan nan nan nan nan nan nan nan nan nan nan nan nan 20 14 12 13 16 17 15 14 14 13 10 7 6 9 10 9 8 9 11 13 14 13 13 13 17 20 20 19 18 22 20 16 16 19 20 21 22 23 22 22 22 22 22 22 21 20 21 21 20 19 19 19 18
nan nan nan nan nan nan nan nan nan nan nan nan nan nan nan nan nan nan nan nan nan nan nan nan nan nan nan nan nan nan nan nan nan 14 11 12 11 10 10 10 12 11 11 10 10 13 13 11 10 9 9 11 13 14 15 14 12 15 19 20 19 20 23 23 19 20 20 21 20 21 21 22 22 23 22 23 22 22 22 22 20 21 20 20 19 18
nan nan nan nan nan nan nan nan nan nan nan nan nan nan nan nan nan nan nan nan nan nan nan nan nan nan nan nan nan 25 21 16 nan nan 11 11 7 6 6 7 7 7 8 10 9 13 12 12 10 11 11 12 13 15 17 15 12 12 18 19 20 22 25 24 21 20 20 22 21 22 23 21 22 23 24 23 23 25 24 22 23 23 21 21 20 19
nan nan nan nan nan nan nan nan nan nan nan nan nan nan nan nan nan nan nan nan nan nan nan nan nan nan nan nan nan 23 18 15 12 12 11 9 6 4 5 6 5 5 7 9 12 14 14 13 13 14 14 13 15 16 15 15 12 12 15 18 19 22 26 24 22 20 21 22 23 24 24 23 22 24 25 24 24 24 24 24 23 22 21 21 20 19
nan nan nan nan nan nan nan nan nan nan nan nan nan nan nan nan nan nan nan nan nan nan nan nan nan nan nan nan 18 21 16 13 17 17 14 11 8 6 5 5 6 9 12 14 17 20 20 18 18 17 18 15 15 16 15 14 13 14 15 17 18 19 28 22 19 21 21 23 25 26 26 24 24 25 26 25 26 25 22 22 21 21 21 21 21 21
nan nan nan nan nan nan nan nan nan nan nan nan nan nan nan nan nan nan nan nan nan nan nan nan nan nan nan nan nan 15 17 19 19 18 17 15 11 7 5 6 9 12 15 20 23 24 25 26 26 25 21 18 18 17 16 15 15 18 18 18 18 20 27 25 20 20 21 21 24 27 26 25 25 26 27 27 27 25 22 22 21 20 21 22 22 22
nan nan nan nan nan nan nan nan nan nan nan nan nan nan nan nan nan nan nan nan nan nan nan nan nan nan nan nan nan 19 19 20 20 18 17 13 9 9 9 12 13 15 18 23 25 28 32 30 27 23 19 19 19 18 18 18 19 24 24 24 22 23 26 27 19 21 26 22 24 27 26 26 26 25 24 25 25 24 24 23 22 22 22 23 24 23
nan nan nan nan nan nan nan nan nan nan nan nan nan nan nan nan nan nan nan nan nan nan nan nan nan nan nan nan nan 21 20 24 22 19 17 17 14 11 11 11 12 15 21 23 23 26 24 21 22 20 20 22 23 22 22 26 30 30 30 25 19 25 25 25 23 23 25 25 25 27 26 26 25 23 23 24 24 24 24 22 22 22 22 24 24 23
nan nan nan nan nan nan nan nan nan nan nan nan nan nan nan nan nan nan nan nan nan nan nan nan nan nan nan nan 28 22 23 28 27 24 18 15 17 16 13 13 16 19 21 22 23 23 19 20 23 22 23 26 27 28 30 27 23 27 23 19 19 27 23 27 26 26 25 25 26 26 27 26 24 22 22 22 23 24 23 21 21 22 23 23 24 24
nan nan nan nan nan nan nan nan nan nan nan nan nan nan nan nan nan nan nan nan nan nan nan nan nan nan nan 27 25 22 26 32 31 28 24 21 19 19 18 19 21 22 22 24 24 22 19 23 25 26 29 31 32 35 24 18 19 22 20 19 25 28 28 31 28 27 24 25 26 25 26 25 23 21 21 22 23 23 22 20 21 22 23 23 24 24
nan nan nan nan nan nan nan nan nan nan nan nan nan nan nan nan nan nan nan nan nan nan nan nan nan nan 24 26 22 22 29 34 35 33 31 29 30 26 22 19 19 24 27 26 28 26 28 29 29 32 36 36 32 25 20 21 21 20 19 22 29 33 32 30 28 24 26 26 19 22 23 22 22 20 21 22 22 21 21 21 22 22 22 23 24 22
nan nan nan nan nan nan nan nan nan nan nan nan nan nan nan nan nan nan nan nan nan nan nan nan 18 23 24 23 26 28 33 36 37 38 36 35 33 32 29 25 23 24 29 31 33 32 34 36 38 40 40 38 28 22 22 23 23 22 23 27 31 28 25 26 24 21 20 20 13 15 19 21 21 21 21 21 21 21 21 22 22 23 23 23 21 20
nan nan nan nan nan nan nan nan nan nan nan nan nan nan nan nan nan nan nan nan nan nan nan nan 19 24 27 24 25 28 33 34 35 34 37 38 38 38 33 33 35 35 36 38 39 40 39 38 38 38 36 35 31 27 24 23 24 27 26 29 25 23 22 21 22 22 21 22 15 15 18 21 21 21 21 21 22 22 22 23 23 23 nan nan nan nan
nan nan nan nan nan nan nan nan nan nan nan nan nan nan nan nan nan nan nan nan nan nan nan 17 nan 22 25 26 26 28 32 33 34 36 37 37 37 36 35 36 38 38 36 35 39 39 38 36 35 32 30 32 33 27 24 21 22 23 25 24 19 19 21 22 20 20 19 21 21 18 19 21 20 20 20 20 22 21 21 23 21 21 23 nan nan nan
nan nan nan nan nan nan nan nan nan nan nan nan nan nan nan nan 21 nan nan nan nan nan nan nan 15 21 27 30 28 28 30 31 32 34 35 35 35 34 36 36 37 37 34 33 36 40 41 38 33 28 26 29 32 26 24 23 20 22 23 19 16 18 20 18 19 21 20 22 24 23 21 18 17 18 19 20 19 17 18 20 19 nan nan 24 nan nan
nan nan nan nan nan nan nan nan nan nan nan nan nan nan nan nan nan nan nan nan nan nan nan nan nan 16 24 27 29 28 27 27 29 32 33 33 35 36 36 34 35 36 34 34 35 40 44 41 34 27 23 28 32 27 24 22 22 21 19 17 17 20 17 15 15 20 21 22 23 22 18 15 15 17 18 18 15 14 16 17 17 19 22 nan nan nan
nan nan nan nan nan nan nan nan nan nan nan nan nan nan nan nan nan nan nan nan nan nan nan nan nan 18 nan 24 28 27 28 28 31 33 32 31 32 33 33 32 35 39 37 37 35 35 38 36 33 30 25 28 33 30 25 21 20 20 17 17 15 17 15 13 12 17 22 23 22 20 18 16 15 16 16 16 14 15 16 16 nan nan nan nan nan nan
nan nan nan nan nan nan nan nan nan nan nan nan nan nan nan nan nan nan nan nan nan nan nan nan nan 17 17 19 24 26 28 29 32 33 33 31 32 34 35 35 37 40 40 39 35 34 37 36 34 30 28 30 32 31 28 23 22 19 16 17 14 13 14 13 14 16 20 22 21 18 17 17 17 17 17 18 16 16 17 17 nan nan nan nan nan nan
26 nan nan nan nan nan nan nan nan nan nan nan nan nan nan nan nan nan 23 nan nan nan nan nan nan 19 18 22 23 23 28 29 30 31 35 35 35 37 37 36 34 39 42 43 39 38 39 38 35 31 29 33 38 36 31 26 23 19 17 16 17 15 13 15 16 18 20 20 20 18 18 18 18 18 18 18 17 18 18 nan nan nan nan nan nan nan
nan nan nan nan nan nan nan nan nan nan nan nan nan nan nan nan nan nan nan nan nan nan 23 21 nan 19 19 20 22 23 27 29 30 31 30 32 32 32 33 32 29 31 37 41 42 nan 46 41 36 32 33 36 38 nan 31 26 21 18 18 19 19 17 15 17 18 19 20 20 20 19 18 19 19 18 19 19 18 19 20 nan nan nan nan nan nan nan
nan nan nan nan nan nan nan nan nan nan 32 nan nan nan nan nan nan nan nan nan nan nan nan 22 23 22 18 22 24 23 24 30 29 30 31 29 28 28 28 29 28 27 26 27 nan nan 48 43 38 37 36 nan 37 35 31 28 25 21 19 20 20 19 17 16 18 18 19 20 22 21 21 21 20 19 20 21 21 23 nan nan nan nan nan nan nan nan
nan nan nan nan nan nan nan nan nan nan nan 32 nan nan nan nan nan nan nan nan nan nan nan nan 25 27 25 25 23 24 24 24 26 29 29 28 27 28 28 26 26 26 nan nan nan nan nan nan nan nan nan nan nan 32 nan 28 28 25 23 23 22 21 20 18 17 20 23 27 30 29 27 26 25 24 24 24 nan nan nan nan nan nan nan nan nan nan
nan nan nan nan nan nan nan nan nan nan nan nan nan nan nan nan nan nan nan nan nan nan nan nan 28 29 27 27 26 25 24 24 24 25 26 26 26 27 25 24 25 nan 23 nan nan nan nan nan nan nan 35 34 33 nan 31 30 29 29 28 26 24 23 23 23 23 24 27 29 27 26 25 27 28 28 27 nan nan nan nan nan nan nan nan nan nan nan
nan nan nan nan nan nan nan nan nan nan nan nan nan nan nan nan nan nan nan nan nan nan 26 nan 29 30 27 28 27 26 26 27 25 24 24 24 25 25 26 26 24 21 19 22 25 28 32 34 36 nan nan nan 32 33 nan 30 nan 32 32 31 30 29 27 26 27 27 26 26 26 26 25 28 30 nan nan nan nan nan nan nan nan nan nan nan nan nan
nan nan nan nan nan nan nan nan nan nan nan nan nan nan nan nan nan nan nan nan nan nan nan nan 36 nan nan 29 29 29 29 29 27 24 24 24 24 24 25 26 26 24 22 21 22 24 27 nan nan nan nan nan nan nan nan nan nan nan 32 33 35 33 31 29 nan 28 29 29 27 27 29 nan nan nan nan nan nan nan nan nan nan nan nan nan nan nan
nan nan nan nan nan nan nan nan nan nan nan nan nan nan nan nan nan nan nan nan nan nan nan nan 35 31 nan nan 32 32 32 30 30 29 27 24 24 24 25 25 24 24 23 22 23 nan nan nan nan nan nan nan nan nan nan nan nan 33 nan 34 34 35 33 32 30 31 nan 32 nan nan nan nan nan nan nan nan nan nan nan nan nan nan nan nan nan nan
nan nan nan nan nan nan nan nan nan nan nan nan nan nan nan nan nan nan nan nan nan nan nan nan nan nan nan nan nan nan 35 36 34 31 29 26 26 26 27 27 26 25 25 24 nan nan nan nan nan nan nan nan nan nan nan nan 31 nan nan nan 35 33 34 33 31 32 33 nan 34 nan nan nan nan nan nan nan nan nan nan nan nan nan nan nan nan nan
nan nan nan nan nan nan nan nan nan nan nan nan nan nan nan nan nan nan nan nan nan nan nan nan nan nan nan nan nan 33 34 35 35 31 30 30 30 29 30 29 29 28 28 28 nan nan nan nan nan nan nan nan nan nan nan nan nan nan nan nan 31 nan 31 nan 31 32 nan 32 32 31 30 nan nan nan nan nan nan nan nan nan nan nan nan nan nan nan
nan nan nan nan nan nan nan nan nan nan nan nan nan nan nan nan nan nan nan nan nan nan nan nan nan nan nan nan nan nan 34 33 33 33 31 29 29 32 32 30 nan nan nan 30 nan nan nan nan nan nan nan nan nan nan nan nan nan nan nan nan nan nan nan nan nan nan nan nan 29 nan nan nan nan nan nan nan nan nan nan nan nan nan nan nan nan nan
nan nan nan nan nan nan nan nan nan nan nan nan nan nan nan nan nan nan nan nan nan nan nan nan nan nan nan nan nan nan nan 37 37 36 34 nan 34 34 34 33 32 31 28 nan nan nan nan nan nan nan nan nan nan nan nan nan nan nan nan nan nan nan nan nan nan nan nan nan nan nan nan nan nan nan nan nan nan nan nan nan nan nan nan nan nan nan
nan nan nan nan nan nan nan nan nan nan nan nan nan nan nan nan nan nan nan nan nan nan nan nan nan nan nan nan nan nan nan nan nan 41 36 36 36 35 nan 35 nan 34 31 nan nan nan nan nan nan nan nan nan nan nan nan nan nan nan nan nan nan nan nan nan nan nan nan nan nan nan nan nan nan nan nan nan nan nan nan nan nan nan nan nan nan nan
nan nan nan nan nan nan nan nan nan nan nan nan nan nan nan nan nan nan nan nan nan nan nan nan nan nan nan nan nan nan nan nan nan nan nan nan 36 nan nan 37 nan nan nan nan nan nan nan nan nan nan nan nan nan nan nan nan nan nan nan nan nan nan nan nan nan nan nan nan nan nan nan nan nan nan nan nan nan nan nan nan nan nan nan nan nan nan
nan nan nan nan nan nan nan nan nan nan nan nan nan nan nan nan nan nan nan nan nan nan nan nan nan nan nan nan nan nan nan nan nan nan nan nan nan nan nan nan nan nan nan nan nan nan nan nan nan nan nan nan nan nan nan nan nan nan nan nan nan nan nan nan nan nan nan nan nan nan nan nan nan nan nan nan nan nan nan nan nan nan nan nan nan nan
19 23 nan nan nan nan nan nan nan nan nan nan nan nan nan nan nan nan nan nan nan nan nan nan nan nan nan nan nan nan nan nan nan nan nan nan nan nan nan nan nan nan nan nan nan nan nan nan nan nan nan nan nan nan nan nan nan nan nan nan nan nan nan nan nan nan nan nan nan nan nan nan nan nan nan nan nan nan nan nan nan nan nan nan nan nan
nan nan nan nan nan nan nan nan nan nan nan nan nan nan nan nan nan nan nan nan nan nan nan nan nan nan nan nan nan nan nan nan nan nan nan nan nan nan nan nan nan nan nan nan nan nan nan nan nan nan nan nan nan nan nan nan nan nan nan nan nan nan nan nan nan nan nan nan nan nan nan nan nan nan nan nan nan nan nan nan nan nan nan nan nan nan
nan nan nan nan nan nan nan nan nan nan nan nan nan nan nan nan nan nan nan nan nan nan nan nan nan nan nan nan nan nan nan nan nan nan nan nan nan nan nan nan nan nan nan nan nan nan nan nan nan nan nan nan nan nan nan nan nan nan nan nan nan nan nan nan nan nan nan nan nan nan nan nan nan nan nan nan nan nan nan nan nan nan nan nan nan nan
nan nan nan nan nan nan nan nan nan nan nan nan nan nan nan nan nan nan nan nan nan nan nan nan nan nan nan nan nan nan nan nan nan nan nan nan nan nan nan nan nan nan nan nan nan nan nan nan nan nan nan nan nan nan nan nan nan nan nan nan nan nan nan nan nan nan nan nan nan nan nan nan nan nan nan nan nan nan nan nan nan nan nan nan nan nan
nan nan nan nan nan nan nan nan nan nan nan nan nan nan nan nan nan nan nan nan nan nan nan nan nan nan nan nan nan nan nan nan nan nan nan nan nan nan nan nan nan nan nan nan nan nan nan nan nan nan nan nan nan nan nan nan nan nan nan nan nan nan nan nan nan nan nan nan nan nan nan nan nan nan nan nan nan nan nan nan nan nan nan nan nan nan
nan nan nan nan nan nan nan nan nan nan nan nan nan nan nan nan nan nan nan nan nan nan nan nan nan nan nan nan nan nan nan nan nan nan nan nan nan nan nan nan nan nan nan nan nan nan nan nan nan nan nan nan nan nan nan nan nan nan nan nan nan nan nan nan nan nan nan nan nan nan nan nan nan nan nan nan nan nan nan nan nan nan nan nan nan nan
nan nan nan nan nan nan nan nan nan nan nan nan nan nan nan nan nan nan nan nan nan nan nan nan nan nan nan nan nan nan nan nan nan nan nan nan nan nan nan nan nan nan nan nan nan nan nan nan nan nan nan nan nan nan nan nan nan nan nan nan nan nan nan nan nan nan nan nan nan nan nan nan nan nan nan nan nan nan nan nan nan nan nan nan nan nan
nan nan nan nan nan nan nan nan nan nan nan nan nan nan nan nan nan nan nan nan nan nan nan nan nan nan nan nan nan nan nan nan nan nan nan nan nan nan nan nan nan nan nan nan nan nan nan nan nan nan nan nan nan nan nan nan nan nan nan nan nan nan nan nan nan nan nan nan nan nan nan nan nan nan nan nan nan nan nan nan nan nan nan nan nan nan
nan nan nan nan nan nan nan nan nan nan nan nan nan nan nan nan nan nan nan nan nan nan nan nan nan nan nan nan nan nan nan nan nan nan nan nan nan nan nan nan nan nan nan nan nan nan nan nan nan nan nan nan nan nan nan nan nan nan nan nan nan nan nan nan nan nan nan nan nan nan nan nan nan nan nan nan nan nan nan nan nan nan nan nan nan nan
nan nan nan nan nan nan nan nan nan nan nan nan nan nan nan nan nan nan nan nan nan nan nan nan nan nan nan nan nan nan nan nan nan nan nan nan nan nan nan nan nan nan nan nan nan nan nan nan nan nan nan nan nan nan nan nan nan nan nan nan nan nan nan nan nan nan nan nan nan nan nan nan nan nan nan nan nan nan nan nan nan nan nan nan nan nan
nan nan nan nan nan nan nan nan nan nan nan nan nan nan nan nan nan nan nan nan nan nan nan nan nan nan nan nan nan nan nan nan nan nan nan nan nan nan nan nan nan nan nan nan nan nan nan nan nan nan nan nan nan nan nan nan nan nan nan nan nan nan nan nan nan nan nan nan nan nan nan nan nan nan nan nan nan nan nan nan nan nan nan nan nan nan
nan nan nan nan nan nan nan nan nan nan nan nan nan nan nan nan nan nan nan nan nan nan nan nan nan nan nan nan nan nan nan nan nan nan nan nan nan nan nan nan nan nan nan nan nan nan nan nan nan nan nan nan nan nan nan nan nan nan nan nan nan nan nan nan nan nan nan nan nan nan nan nan nan nan nan nan nan nan nan nan nan nan nan nan nan nan
nan nan nan nan nan nan nan nan nan nan nan nan nan nan nan nan nan nan nan nan nan nan nan nan nan nan nan nan nan nan nan nan nan nan nan nan nan nan nan nan nan nan nan nan nan nan nan nan nan nan nan nan nan nan nan nan nan nan nan nan nan nan nan nan nan nan nan nan nan nan nan nan nan nan nan nan nan nan nan nan nan nan nan nan nan nan
Wind_Direction
nan nan nan nan nan nan nan nan nan nan nan nan nan nan nan nan nan nan nan nan nan nan nan nan nan nan nan nan nan 240 246 247 251 255 258 263 268 273 274 275 283 297 317 294 293 295 299 309 330 345 335 320 312 315 323 322 309 285 271 282 284 263 278 303 300 286 285 280 277 275 279 280 283 286 286 279 267 258 252 253 250 244 242 246 251 250
nan nan nan nan nan nan nan nan nan nan nan nan nan nan nan nan nan nan nan nan nan nan nan nan nan nan nan nan nan nan 244 249 258 264 266 269 272 271 277 274 279 286 271 282 288 288 286 294 330 324 291 297 304 306 314 318 293 278 280 286 289 265 263 309 308 287 294 296 297 291 285 278 279 284 286 276 264 258 252 249 243 241 242 243 251 253
nan nan nan nan nan nan nan nan nan nan nan nan nan nan nan nan nan nan nan nan nan nan nan nan nan nan nan nan nan nan 256 252 263 272 274 274 273 271 276 278 274 274 281 289 292 277 277 294 314 297 274 285 290 293 296 296 287 280 283 283 277 270 266 291 285 282 284 289 293 291 281 278 275 271 268 269 263 259 255 246 240 239 243 251 254 257
nan nan nan nan nan nan nan nan nan nan nan nan nan nan nan nan nan nan nan nan nan nan nan nan nan nan nan nan nan nan nan 248 251 266 262 263 271 278 282 283 285 291 291 293 287 276 270 281 278 269 264 273 277 282 283 287 285 274 274 281 270 270 261 261 268 264 271 282 284 280 278 271 267 268 262 261 262 260 257 248 240 240 243 251 256 259
nan nan nan nan nan nan nan nan nan nan nan nan nan nan nan nan nan nan nan nan nan nan nan nan nan nan nan nan nan nan nan 224 236 246 251 253 254 254 264 278 290 297 293 281 265 255 262 273 270 257 259 262 268 272 280 273 271 271 277 286 289 281 272 253 266 267 269 271 273 271 269 264 260 260 259 260 261 260 255 248 243 244 247 253 255 255
nan nan nan nan nan nan nan nan nan nan nan nan nan nan nan nan nan nan nan nan nan nan nan nan nan nan nan nan nan nan nan nan nan 245 260 267 262 262 271 291 296 286 274 270 264 246 244 244 237 233 252 262 263 267 266 267 270 278 288 289 292 277 272 263 265 274 273 273 273 273 271 268 265 265 267 268 265 257 251 249 245 246 249 251 250 249
nan nan nan nan nan nan nan nan nan nan nan nan nan nan nan nan nan nan nan nan nan nan nan nan nan nan nan nan nan nan nan nan nan 248 251 262 260 272 282 286 285 287 279 268 246 238 248 259 247 241 248 261 265 262 262 263 276 279 286 294 291 276 273 274 278 282 276 276 273 277 274 270 270 272 267 257 248 245 242 240 246 249 248 248 246 244
nan nan nan nan nan nan nan nan nan nan nan nan nan nan nan nan nan nan nan nan nan nan nan nan nan nan nan nan nan 244 239 232 nan nan 250 253 266 278 284 282 280 273 274 268 256 244 258 268 258 237 245 255 261 262 262 262 265 282 279 292 294 279 282 276 278 279 280 280 276 271 269 263 264 266 263 253 238 231 235 240 243 244 242 239 236 237
nan nan nan nan nan nan nan nan nan nan nan nan nan nan nan nan nan nan nan nan nan nan nan nan nan nan nan nan nan 248 246 253 242 242 246 242 231 236 256 259 252 237 244 242 231 235 250 259 240 232 239 248 255 259 264 266 265 263 274 282 281 285 275 279 280 280 283 276 270 263 260 259 254 257 252 244 237 236 238 245 245 247 246 242 237 233
nan nan nan nan nan nan nan nan nan nan nan nan nan nan nan nan nan nan nan nan nan nan nan nan nan nan nan nan 238 251 252 242 235 224 215 213 213 213 227 228 205 206 216 221 218 229 233 231 230 234 239 244 245 246 251 256 256 253 259 274 278 278 269 275 281 282 285 274 265 259 257 260 250 248 246 245 244 242 246 253 252 251 249 244 239 235
nan nan nan nan nan nan nan nan nan nan nan nan nan nan nan nan nan nan nan nan nan nan nan nan nan nan nan nan nan 247 243 237 220 216 213 205 200 197 180 175 192 199 215 223 227 231 231 235 241 243 239 237 236 236 242 244 252 245 238 250 259 260 263 273 281 282 278 269 264 256 255 255 253 253 252 250 249 249 254 260 257 254 249 243 241 238
nan nan nan nan nan nan nan nan nan nan nan nan nan nan nan nan nan nan nan nan nan nan nan nan nan nan nan nan nan 243 228 214 200 185 191 193 185 179 173 174 187 199 221 235 237 238 243 249 258 260 254 247 239 237 236 234 243 246 235 235 241 242 259 265 266 267 258 256 259 251 249 251 250 253 252 255 256 259 266 266 261 253 248 243 241 241
nan nan nan nan nan nan nan nan nan nan nan nan nan nan nan nan nan nan nan nan nan nan nan nan nan nan nan nan nan 235 214 196 185 179 181 182 180 179 174 181 198 222 237 240 245 252 257 271 286 284 272 261 252 241 237 232 239 249 248 243 243 240 251 266 265 259 255 250 252 248 246 247 246 250 254 256 259 262 266 266 261 257 252 246 246 244
nan nan nan nan nan nan nan nan nan nan nan nan nan nan nan nan nan nan nan nan nan nan nan nan nan nan nan nan 235 223 208 196 187 181 180 190 188 185 188 206 218 232 243 246 247 251 257 249 253 247 251 259 256 249 244 249 269 283 278 276 259 247 244 243 249 249 248 250 250 245 244 245 245 247 252 254 260 263 264 262 259 256 253 251 250 250
nan nan nan nan nan nan nan nan nan nan nan nan nan nan nan nan nan nan nan nan nan nan nan nan nan nan nan 241 225 220 210 206 203 205 204 206 206 209 217 221 228 233 240 244 246 255 254 250 257 243 238 244 248 249 259 285 288 284 281 272 269 264 249 242 237 229 230 237 249 246 245 248 246 248 251 255 258 263 260 254 256 253 250 253 251 250
nan nan nan nan nan nan nan nan nan nan nan nan nan nan nan nan nan nan nan nan nan nan nan nan nan nan 233 232 224 222 220 216 217 219 219 220 224 230 234 230 235 240 231 231 242 245 251 255 259 252 238 241 257 274 270 283 280 273 265 260 255 256 256 257 253 247 230 212 222 249 251 252 255 252 254 253 255 256 253 253 255 254 251 250 251 248
nan nan nan nan nan nan nan nan nan nan nan nan nan nan nan nan nan nan nan nan nan nan nan nan 227 236 229 234 228 225 226 221 220 223 223 219 228 230 223 227 236 238 241 234 226 235 245 253 260 259 251 248 260 272 272 277 275 271 261 251 250 260 269 278 279 269 250 242 214 255 258 258 257 259 263 261 261 258 251 252 253 254 253 252 251 251
nan nan nan nan nan nan nan nan nan nan nan nan nan nan nan nan nan nan nan nan nan nan nan nan 234 226 227 230 227 225 223 225 222 226 228 225 224 225 226 227 227 229 226 226 228 225 231 243 253 260 257 251 250 265 281 281 269 262 259 255 263 274 279 277 264 258 244 244 243 259 262 258 259 260 263 262 260 256 256 255 253 252 nan nan nan nan
nan nan nan nan nan nan nan nan nan nan nan nan nan nan nan nan nan nan nan nan nan nan nan 250 nan 221 221 222 228 227 221 223 226 231 232 232 233 233 233 234 235 238 239 239 238 237 234 237 244 255 261 247 250 269 277 273 260 255 255 258 269 280 278 278 267 253 240 233 240 262 273 271 265 262 265 263 260 259 260 261 256 253 249 nan nan nan
nan nan nan nan nan nan nan nan nan nan nan nan nan nan nan nan 239 nan nan nan nan nan nan nan 233 224 227 224 221 221 219 225 235 237 240 238 240 243 244 245 250 253 253 248 246 244 243 244 240 245 254 249 256 272 268 266 262 260 259 263 271 273 272 278 267 253 242 235 244 259 267 271 274 273 271 269 268 264 263 262 256 nan nan 258 nan nan
nan nan nan nan nan nan nan nan nan nan nan nan nan nan nan nan nan nan nan nan nan nan nan nan nan 232 228 222 221 219 216 227 239 247 249 247 248 248 248 253 262 269 270 264 251 241 244 248 241 240 249 247 252 266 262 261 268 269 268 265 268 271 275 287 273 256 247 252 259 267 267 263 262 265 263 268 269 266 259 253 249 246 252 nan nan nan
nan nan nan nan nan nan nan nan nan nan nan nan nan nan nan nan nan nan nan nan nan nan nan nan nan 236 nan 226 228 227 226 234 243 250 253 255 256 253 252 257 262 270 271 267 263 247 241 242 242 238 242 244 249 261 262 266 270 271 258 260 263 262 270 277 279 256 252 257 263 265 255 254 255 258 258 261 257 254 252 247 nan nan nan nan nan nan
nan nan nan nan nan nan nan nan nan nan nan nan nan nan nan nan nan nan nan nan nan nan nan nan nan 241 229 238 232 236 236 244 250 255 260 261 263 262 262 265 267 267 264 258 253 244 229 228 232 237 242 242 248 258 261 259 259 254 247 250 253 264 265 265 255 248 248 256 262 263 255 252 250 250 257 259 256 256 253 246 nan nan nan nan nan nan
235 nan nan nan nan nan nan nan nan nan nan nan nan nan nan nan nan nan 232 nan nan nan nan nan nan 247 239 246 243 241 251 252 255 259 264 264 268 272 271 267 262 261 255 245 242 238 226 219 223 227 233 235 234 234 242 247 253 250 243 246 246 256 265 249 250 248 244 244 249 251 252 252 249 254 258 261 259 260 252 nan nan nan nan nan nan nan
nan nan nan nan nan nan nan nan nan nan nan nan nan nan nan nan nan nan nan nan nan nan 241 257 nan 255 246 254 256 255 253 257 249 247 256 263 262 261 260 260 260 260 259 255 246 nan 221 214 216 222 226 231 237 nan 242 243 243 246 244 240 245 256 266 252 248 248 244 245 247 245 250 255 252 252 258 262 259 258 250 nan nan nan nan nan nan nan
nan nan nan nan nan nan nan nan nan nan 228 nan nan nan nan nan nan nan nan nan nan nan nan 252 255 252 259 260 260 270 266 252 248 249 248 248 252 255 255 256 255 252 255 257 nan nan 208 208 215 216 223 nan 231 234 236 241 243 241 244 244 246 256 262 261 245 245 248 244 244 243 246 246 244 248 257 258 255 251 nan nan nan nan nan nan nan nan
nan nan nan nan nan nan nan nan nan nan nan 230 nan nan nan nan nan nan nan nan nan nan nan nan 250 268 266 263 264 255 256 255 250 246 246 248 249 253 254 254 251 249 nan nan nan nan nan nan nan nan nan nan nan 238 nan 245 243 243 244 245 246 251 254 250 243 231 232 234 230 228 230 233 235 240 249 253 nan nan nan nan nan nan nan nan nan nan
nan nan nan nan nan nan nan nan nan nan nan nan nan nan nan nan nan nan nan nan nan nan nan nan 266 268 259 249 246 254 258 258 253 250 250 249 250 254 257 257 253 nan 255 nan nan nan nan nan nan nan 224 231 238 nan 236 237 240 240 240 239 241 247 246 240 234 232 240 241 239 234 228 235 240 246 252 nan nan nan nan nan nan nan nan nan nan nan
nan nan nan nan nan nan nan nan nan nan nan nan nan nan nan nan nan nan nan nan nan nan 244 nan 269 262 250 248 247 247 252 257 258 257 257 258 260 262 260 256 253 252 251 241 225 213 211 210 213 nan nan nan 232 235 nan 234 nan 242 243 241 242 243 242 238 235 234 239 246 241 239 242 246 249 nan nan nan nan nan nan nan nan nan nan nan nan nan
nan nan nan nan nan nan nan nan nan nan nan nan nan nan nan nan nan nan nan nan nan nan nan nan 257 nan nan 248 248 249 252 256 258 259 258 255 256 259 260 259 258 254 249 243 234 224 217 nan nan nan nan nan nan nan nan nan nan nan 238 238 242 243 241 240 nan 241 243 245 246 251 249 nan nan nan nan nan nan nan nan nan nan nan nan nan nan nan
nan nan nan nan nan nan nan nan nan nan nan nan nan nan nan nan nan nan nan nan nan nan nan nan 259 254 nan nan 254 256 256 256 254 252 253 253 255 257 257 255 256 255 248 242 236 nan nan nan nan nan nan nan nan nan nan nan nan 242 nan 241 239 234 229 233 237 239 nan 245 nan nan nan nan nan nan nan nan nan nan nan nan nan nan nan nan nan nan
nan nan nan nan nan nan nan nan nan nan nan nan nan nan nan nan nan nan nan nan nan nan nan nan nan nan nan nan nan nan 256 254 254 252 252 252 252 253 253 253 253 252 250 244 nan nan nan nan nan nan nan nan nan nan nan nan 243 nan nan nan 237 229 229 231 230 233 235 nan 250 nan nan nan nan nan nan nan nan nan nan nan nan nan nan nan nan nan
nan nan nan nan nan nan nan nan nan nan nan nan nan nan nan nan nan nan nan nan nan nan nan nan nan nan nan nan nan 255 257 258 255 252 253 252 251 249 251 252 253 251 248 247 nan nan nan nan nan nan nan nan nan nan nan nan nan nan nan nan 225 nan 229 nan 235 237 nan 236 240 244 245 nan nan nan nan nan nan nan nan nan nan nan nan nan nan nan
nan nan nan nan nan nan nan nan nan nan nan nan nan nan nan nan nan nan nan nan nan nan nan nan nan nan nan nan nan nan 256 254 255 254 251 249 250 249 248 249 nan nan nan 247 nan nan nan nan nan nan nan nan nan nan nan nan nan nan nan nan nan nan nan nan nan nan nan nan 231 nan nan nan nan nan nan nan nan nan nan nan nan nan nan nan nan nan
nan nan nan nan nan nan nan nan nan nan nan nan nan nan nan nan nan nan nan nan nan nan nan nan nan nan nan nan nan nan nan 255 251 250 249 nan 247 248 249 248 247 247 244 nan nan nan nan nan nan nan nan nan nan nan nan nan nan nan nan nan nan nan nan nan nan nan nan nan nan nan nan nan nan nan nan nan nan nan nan nan nan nan nan nan nan nan
nan nan nan nan nan nan nan nan nan nan nan nan nan nan nan nan nan nan nan nan nan nan nan nan nan nan nan nan nan nan nan nan nan 248 248 248 246 245 nan 247 nan 245 244 nan nan nan nan nan nan nan nan nan nan nan nan nan nan nan nan nan nan nan nan nan nan nan nan nan nan nan nan nan nan nan nan nan nan nan nan nan nan nan nan nan nan nan
nan nan nan nan nan nan nan nan nan nan nan nan nan nan nan nan nan nan nan nan nan nan nan nan nan nan nan nan nan nan nan nan nan nan nan nan 248 nan nan 248 nan nan nan nan nan nan nan nan nan nan nan nan nan nan nan nan nan nan nan nan nan nan nan nan nan nan nan nan nan nan nan nan nan nan nan nan nan nan nan nan nan nan nan nan nan nan
nan nan nan nan nan nan nan nan nan nan nan nan nan nan nan nan nan nan nan nan nan nan nan nan nan nan nan nan nan nan nan nan nan nan nan nan nan nan nan nan nan nan nan nan nan nan nan nan nan nan nan nan nan nan nan nan nan nan nan nan nan nan nan nan nan nan nan nan nan nan nan nan nan nan nan nan nan nan nan nan nan nan nan nan nan nan
242 243 nan nan nan nan nan nan nan nan nan nan nan nan nan nan nan nan nan nan nan nan nan nan nan nan nan nan nan nan nan nan nan nan nan nan nan nan nan nan nan nan nan nan nan nan nan nan nan nan nan nan nan nan nan nan nan nan nan nan nan nan nan nan nan nan nan nan nan nan nan nan nan nan nan nan nan nan nan nan nan nan nan nan nan nan
nan nan nan nan nan nan nan nan nan nan nan nan nan nan nan nan nan nan nan nan nan nan nan nan nan nan nan nan nan nan nan nan nan nan nan nan nan nan nan nan nan nan nan nan nan nan nan nan nan nan nan nan nan nan nan nan nan nan nan nan nan nan nan nan nan nan nan nan nan nan nan nan nan nan nan nan nan nan nan nan nan nan nan nan nan nan
nan nan nan nan nan nan nan nan nan nan nan nan nan nan nan nan nan nan nan nan nan nan nan nan nan nan nan nan nan nan nan nan nan nan nan nan nan nan nan nan nan nan nan nan nan nan nan nan nan nan nan nan nan nan nan nan nan nan nan nan nan nan nan nan nan nan nan nan nan nan nan nan nan nan nan nan nan nan nan nan nan nan nan nan nan nan
nan nan nan nan nan nan nan nan nan nan nan nan nan nan nan nan nan nan nan nan nan nan nan nan nan nan nan nan nan nan nan nan nan nan nan nan nan nan nan nan nan nan nan nan nan nan nan nan nan nan nan nan nan nan nan nan nan nan nan nan nan nan nan nan nan nan nan nan nan nan nan nan nan nan nan nan nan nan nan nan nan nan nan nan nan nan
nan nan nan nan nan nan nan nan nan nan nan nan nan nan nan nan nan nan nan nan nan nan nan nan nan nan nan nan nan nan nan nan nan nan nan nan nan nan nan nan nan nan nan nan nan nan nan nan nan nan nan nan nan nan nan nan nan nan nan nan nan nan nan nan nan nan nan nan nan nan nan nan nan nan nan nan nan nan nan nan nan nan nan nan nan nan
nan nan nan nan nan nan nan nan nan nan nan nan nan nan nan nan nan nan nan nan nan nan nan nan nan nan nan nan nan nan nan nan nan nan nan nan nan nan nan nan nan nan nan nan nan nan nan nan nan nan nan nan nan nan nan nan nan nan nan nan nan nan nan nan nan nan nan nan nan nan nan nan nan nan nan nan nan nan nan nan nan nan nan nan nan nan
nan nan nan nan nan nan nan nan nan nan nan nan nan nan nan nan nan nan nan nan nan nan nan nan nan nan nan nan nan nan nan nan nan nan nan nan nan nan nan nan nan nan nan nan nan nan nan nan nan nan nan nan nan nan nan nan nan nan nan nan nan nan nan nan nan nan nan nan nan nan nan nan nan nan nan nan nan nan nan nan nan nan nan nan nan nan
nan nan nan nan nan nan nan nan nan nan nan nan nan nan nan nan nan nan nan nan nan nan nan nan nan nan nan nan nan nan nan nan nan nan nan nan nan nan nan nan nan nan nan nan nan nan nan nan nan nan nan nan nan nan nan nan nan nan nan nan nan nan nan nan nan nan nan nan nan nan nan nan nan nan nan nan nan nan nan nan nan nan nan nan nan nan
nan nan nan nan nan nan nan nan nan nan nan nan nan nan nan nan nan nan nan nan nan nan nan nan nan nan nan nan nan nan nan nan nan nan nan nan nan nan nan nan nan nan nan nan nan nan nan nan nan nan nan nan nan nan nan nan nan nan nan nan nan nan nan nan nan nan nan nan nan nan nan nan nan nan nan nan nan nan nan nan nan nan nan nan nan nan
nan nan nan nan nan nan nan nan nan nan nan nan nan nan nan nan nan nan nan nan nan nan nan nan nan nan nan nan nan nan nan nan nan nan nan nan nan nan nan nan nan nan nan nan nan nan nan nan nan nan nan nan nan nan nan nan nan nan nan nan nan nan nan nan nan nan nan nan nan nan nan nan nan nan nan nan nan nan nan nan nan nan nan nan nan nan
nan nan nan nan nan nan nan nan nan nan nan nan nan nan nan nan nan nan nan nan nan nan nan nan nan nan nan nan nan nan nan nan nan nan nan nan nan nan nan nan nan nan nan nan nan nan nan nan nan nan nan nan nan nan nan nan nan nan nan nan nan nan nan nan nan nan nan nan nan nan nan nan nan nan nan nan nan nan nan nan nan nan nan nan nan nan
nan nan nan nan nan nan nan nan nan nan nan nan nan nan nan nan nan nan nan nan nan nan nan nan nan nan nan nan nan nan nan nan nan nan nan nan nan nan nan nan nan nan nan nan nan nan nan nan nan nan nan nan nan nan nan nan nan nan nan nan nan nan nan nan nan nan nan nan nan nan nan nan nan nan nan nan nan nan nan nan nan nan nan nan nan nan
nan nan nan nan nan nan nan nan nan nan nan nan nan nan nan nan nan nan nan nan nan nan nan nan nan nan nan nan nan nan nan nan nan nan nan nan nan nan nan nan nan nan nan nan nan nan nan nan nan nan nan nan nan nan nan nan nan nan nan nan nan nan nan nan nan nan nan nan nan nan nan nan nan nan nan nan nan nan nan nan nan nan nan nan nan nan